Simultaneous Nadir Overpasses (SNOs) Predictions

Prediction of SNOs between LANDSAT-8 and NPP Satellite Orbit:

Table of predicted SNOs for the next 14.0 days since TLE Epoch: 12/5/2020
Index Date (LANDSAT-8) Time (LANDSAT-8) Lat,Lon (LANDSAT-8) SZA (LANDSAT-8 ) Date (NPP) Time (NPP) Lat,Lon (NPP) SZA (NPP ) Distance(km) Time Diff (sec)
1 12/05/2020 15:31:44 -70.06, 123.53 87.57 12/05/2020 15:31:07 -70.05, 123.57 87.58 2.21 37
2 12/05/2020 16:21:11 69.96, -68.97 92.33 12/05/2020 16:21:52 69.97, -69.01 92.35 2.33 41
3 12/08/2020 06:58:37 70.51, 72.43 93.17 12/08/2020 06:57:26 70.55, 71.25 93.23 43.80 71
4 12/08/2020 07:48:14 -70.02,-120.65 87.32 12/08/2020 07:48:00 -70.05,-120.65 87.29 3.34 14
5 12/08/2020 08:37:41 69.91, 46.84 92.58 12/08/2020 08:38:44 69.92, 46.85 92.60 1.69 63
6 12/10/2020 23:15:13 70.12,-172.26 93.03 12/10/2020 23:14:11 70.13,-172.32 93.05 2.50 62
7 12/11/2020 00:04:43 -70.02, -4.77 87.07 12/11/2020 00:04:52 -69.99, -4.79 87.09 2.63 9
8 12/11/2020 00:54:18 69.46, 162.11 92.39 12/11/2020 00:55:28 69.45, 163.32 92.36 47.10 70
9 12/13/2020 15:31:43 70.06, -56.47 93.16 12/13/2020 15:31:03 70.09, -56.47 93.20 3.23 40
10 12/13/2020 16:21:13 -69.96, 111.02 86.94 12/13/2020 16:21:44 -69.94, 111.06 86.95 1.94 31
11 12/16/2020 06:58:32 -70.81,-107.12 85.96 12/16/2020 06:57:24 -70.89,-109.28 85.85 79.19 68
12 12/16/2020 07:48:11 70.04, 59.39 93.28 12/16/2020 07:47:54 70.04, 59.37 93.29 0.81 17
13 12/16/2020 08:37:41 -69.94,-133.12 86.82 12/16/2020 08:38:36 -69.95,-133.17 86.81 2.37 55
14 12/18/2020 23:15:13 -70.14, 7.76 86.54 12/18/2020 23:14:02 -70.11, 7.74 86.56 2.96 71
15 12/19/2020 00:04:40 70.02, 175.24 93.35 12/19/2020 00:04:46 70.01, 175.21 93.34 1.79 6
16 12/19/2020 00:54:13 -69.76, -17.49 86.92 12/19/2020 00:55:25 -69.75, -17.09 86.93 15.35 72



Historial Predications of SNOs between LANDSAT-8 and NPP
